Regional Weather Roundup
Issued by NWS

Home | Current Version | Previous Version | Text Only | Print | Product List | Glossary Off
Versions: 1 2 3 4 5 6 7 8 9 10 11 12 13 14 15 16 17 18 19 20 21 22 23 24 25 26 27 28 29 30 31 32 33 34 35 36 37 38 39 40 41 42 43 44 45 46 47 48 49 50

000
ASUS45 KCYS 080510
RWRWY

WYOMING REGIONAL WEATHER ROUNDUP
NATIONAL WEATHER SERVICE CHEYENNE WY
1000 PM MST WED DEC 07 2016

NOTE:  "FAIR" INDICATES FEW OR NO CLOUDS BELOW 12,000 FEET
WITH NO SIGNIFICANT WEATHER AND/OR OBSTRUCTIONS TO VISIBILITY.

WYZ001-080600-
YELLOWSTONE NATIONAL PARK

CITY           SKY/WX    TMP DP  RH WIND       PRES   REMARKS
LK YELLOWSTONE   N/A    -14 -17  87 NW3       30.18R
W YELLOWSTONE  NOT AVBL

$$
WYZ002>013-054>058-071-098>099-080600-
NORTHERN WYOMING

CITY           SKY/WX    TMP DP  RH WIND       PRES   REMARKS
JACKSON        FAIR     -13 -17  84 N10       30.26R WCI -32
CODY           FAIR      -8 -11  86 S5        30.38S WCI -19
GREYBULL       MOCLDY     2  -4  76 SW3       30.48S
WORLAND        FAIR      -3  -7  82 CALM      30.46R
SHERIDAN       FAIR      -6 -13  71 CALM      30.49R
BUFFALO        FAIR      -3 -12  65 CALM      30.39S
GILLETTE       FAIR      -7 -11  83 W10       30.44R WCI -25
HULETT         FAIR       0  -6  78 MISG      30.45S
NEWCASTLE      FAIR      -6 -11  77 NW6       30.46R WCI -18

$$
WYZ014>020-022>026-101>103-080600-
CENTRAL WYOMING

CITY           SKY/WX    TMP DP  RH WIND       PRES   REMARKS
BIG PINEY      FAIR     -11 -15  82 CALM      30.23R
PINEDALE       FAIR     -15 -20  76 NW7       30.24R WCI -31
DUBOIS         FAIR      -8 -13  77 NW12      30.18S WCI -27
LANDER         CLOUDY     3  -4  72 SW6       30.32R WCI  -8
RIVERTON       CLOUDY     2  -3  80 CALM      30.34R
CASPER         FAIR     -24 -28  81 CALM      30.37R
DOUGLAS        FAIR     -10 -18  67 CALM      30.41R

$$
WYZ021-027>030-104>119-080600-
SOUTHERN WYOMING

CITY           SKY/WX    TMP DP  RH WIND       PRES   REMARKS
EVANSTON       FAIR       1  -6  72 SE5       30.20R WCI  -9
KEMMERER         N/A     -6  -9  84 N12       30.20S WCI -24
FORT BRIDGER   FAIR       8   1  71 E3        30.24S
ROCK SPRINGS   FAIR      -1  -6  79 SE7       30.24R WCI -14
DIXON          FAIR      -1  -8  72 NE3       30.31R
RAWLINS        FAIR     -11 -16  78 CALM      30.25R
SARATOGA       FAIR      -8 -13  77 CALM      30.26R
LARAMIE        FAIR     -14 -19  79 CALM      30.20R
CHEYENNE       FAIR     -11 -16  78 CALM      30.30R
TORRINGTON     FAIR      -3  -9  75 NW9       30.45R WCI -19
PINE BLUFFS    FAIR     -11 -17  77 MISG      30.39R

$$



USA.gov is the U.S. government's official web portal to all federal, state and local government web resources and services.